Regional Weather Roundup
Issued by NWS

Current Version | Previous Version | Text Only | Print | Product List | Glossary Off
Versions: 1 2 3 4 5 6 7 8 9 10 11 12 13 14 15 16 17 18 19 20 21 22 23 24 25 26 27

000
ASUS44 KBMX 231210
RWRAL

ALABAMA REGIONAL WEATHER ROUNDUP
NATIONAL WEATHER SERVICE BIRMINGHAM AL
700 AM CDT WED AUG 23 2017

NOTE: "FAIR" INDICATES FEW OR NO CLOUDS BELOW 12,000 FEET
WITH NO SIGNIFICANT WEATHER AND/OR OBSTRUCTIONS TO VISIBILITY.

THE REMARK "TC" DENOTES TEMPERATURE IN DEGREES CELSIUS.

ALZ001>011-014-016>018-020-231300-
NORTH ALABAMA

CITY           SKY/WX    TMP DP  RH WIND       PRES   REMARKS
MUSCLE SHOALS  MOCLDY    72  69  90 CALM      30.04R
6HR MIN TEMP:  71; 6HR MAX TEMP:  73;

HUNTSVILLE     CLOUDY    73  72  96 NW5       30.02R
6HR MIN TEMP:  72; 6HR MAX TEMP:  73;

DECATUR        CLOUDY    72  72 100 N5        30.02R
6HR MIN TEMP:  70; 6HR MAX TEMP:  72;

HALEYVILLE     CLOUDY    70  70 100 NE3       30.05R
6HR MIN TEMP:  69; 6HR MAX TEMP:  71;

GADSDEN        MOCLDY    73  69  87 NW3       30.00
6HR MIN TEMP:  69; 6HR MAX TEMP:  74;

$$

ALZ012-013-022-023-030>036-040>044-231300-
WEST CENTRAL ALABAMA

CITY           SKY/WX    TMP DP  RH WIND       PRES   REMARKS
TUSCALOOSA     CLOUDY    75  75 100 CALM      29.99R FOG
6HR MIN TEMP:  74; 6HR MAX TEMP:  77;

DEMOPOLIS        N/A     75  73  94 CALM      29.98R
6HR MIN TEMP:  75; 6HR MAX TEMP:  77;

$$

ALZ015-024>026-033>036-041>044-231300-
CENTRAL ALABAMA

CITY           SKY/WX    TMP DP  RH WIND       PRES   REMARKS
BIRMINGHAM     PTCLDY    74  71  91 CALM      30.03R
6HR MIN TEMP:  72; 6HR MAX TEMP:  76;

MONTGOMERY     PTCLDY    77  73  87 CALM      29.99R FOG
6HR MIN TEMP:  76; 6HR MAX TEMP:  79;

SHELBY CO ARPT PTCLDY    74  74 100 CALM      30.00R FOG
6HR MIN TEMP:  73; 6HR MAX TEMP:  77;

MAXWELL AFB    PTCLDY    76  76 100 CALM      29.98R
6HR MIN TEMP:  75; 6HR MAX TEMP:  78;

GREENVILLE     FAIR      76  73  91 SW3       29.99
6HR MIN TEMP:  75; 6HR MAX TEMP:  78;

SELMA          FAIR      75  73  94 CALM      29.98S
PRATTVILLE     FAIR      73  73 100 CALM      29.98S
6HR MIN TEMP:  73; 6HR MAX TEMP:  78;

BESSEMER       FOG       71  71 100 CALM      30.01S VSB 1/4
6HR MIN TEMP:  71; 6HR MAX TEMP:  74;

TALLADEGA      FAIR     N/A N/A N/A MISG      30.00S
PELL CITY      SUNNY     70  70 100 CALM      29.99F FOG
MARION         FAIR      75  75 100 CALM      29.98R
6HR MIN TEMP:  74; 6HR MAX TEMP:  77;

SYLACAUGA      FAIR      74  74 100 CALM      30.00S FOG
6HR MIN TEMP:  72; 6HR MAX TEMP:  75;

$$

ALZ019-021-028-029-037-038-045>048-231300-
EAST CENTRAL ALABAMA

CITY           SKY/WX    TMP DP  RH WIND       PRES   REMARKS
ANNISTON       CLEAR     72  71  97 CALM      30.00R FOG
6HR MIN TEMP:  71; 6HR MAX TEMP:  75;

ALEXANDER CITY CLEAR     72  71  97 CALM      30.01R
6HR MIN TEMP:  71; 6HR MAX TEMP:  76;

AUBURN         CLEAR     76  74  93 CALM      30.02R
6HR MIN TEMP:  75; 6HR MAX TEMP:  79;

$$

ALZ051>064-231300-
SOUTHWEST ALABAMA

CITY           SKY/WX    TMP DP  RH WIND       PRES   REMARKS
MOBILE         MOCLDY    74  72  93 CALM      30.00R
6HR MIN TEMP:  73; 6HR MAX TEMP:  75;

BROOKLEY FIELD CLOUDY    74  74 100 CALM      30.00S
6HR MIN TEMP:  74; 6HR MAX TEMP:  77;

EVERGREEN      PTCLDY    74  73  97 CALM      30.01R FOG
6HR MIN TEMP:  73; 6HR MAX TEMP:  76;

$$

ALZ049-050-065>069-231300-
SOUTHEAST ALABAMA

CITY           SKY/WX    TMP DP  RH WIND       PRES   REMARKS
DOTHAN         CLEAR     77  76  96 W6        30.03R
6HR MIN TEMP:  75; 6HR MAX TEMP:  78;

OZARK          CLEAR     74  73  97 W3        30.00R
6HR MIN TEMP:  73; 6HR MAX TEMP:  76;

TROY           PTCLDY    74  74 100 CALM      30.01R FOG
6HR MIN TEMP:  73; 6HR MAX TEMP:  75;

EUFAULA        FAIR      78  76  93 CALM      29.99R
6HR MIN TEMP:  75; 6HR MAX TEMP:  79;

$$




USA.gov is the U.S. government's official web portal to all federal, state and local government web resources and services.